Location: Baia Mare
(47.6567°N, 23.5850°E)
Time: 17:51:58
(UTC+03:00)

ISS - Pass Details

Date: 05 October 2018
Orbit: 403 x 408 km, 51.6° (Epoch: 21 October)

Event Time Altitude Azimuth Distance (km) Brightness Sun altitude
Rises 21:25:51 0° 293° (WNW) 2,340 1.4 -25.4°
Reaches altitude 10° 21:27:57 10° 289° (WNW) 1,476 0.0 -25.7°
Enters shadow 21:29:37 26° 279° (W) 841 -1.6 -26.0°
